• In Slovakia
  • List of Countries
  • For 7 days
  • Water Temperature
  • Satellite Maps
  • Weather Map
  • Weather Widgets
  • user-avatar
    Login

    Hourly Weather Kapan

    Today, 20 August, Monday

    Time Temperature Precipitation Wind Pressure Humidity
    00:00 +20°C° 0.1 mm 3 mps 683 mmHg 70%
    01:00 +19°C° 0 mm 2 mps 684 mmHg 73%
    02:00 +19°C° 0 mm 2 mps 684 mmHg 75%
    03:00 +18°C° 0 mm 2 mps 684 mmHg 77%
    04:00 +18°C° 0 mm 2 mps 684 mmHg 77%
    05:00 +18°C° 0 mm 2 mps 684 mmHg 77%
    06:00 +18°C° 0 mm 2 mps 684 mmHg 77%
    07:00 +20°C° 0 mm 2 mps 685 mmHg 72%
    08:00 +21°C° 0 mm 3 mps 685 mmHg 68%
    09:00 +22°C° 0 mm 3 mps 686 mmHg 63%
    10:00 +24°C° 0 mm 3 mps 686 mmHg 60%
    11:00 +24°C° 0 mm 3 mps 686 mmHg 57%
    12:00 +25°C° 0 mm 4 mps 686 mmHg 54%
    13:00 +25°C° 0 mm 4 mps 686 mmHg 53%
    14:00 +26°C° 0 mm 4 mps 685 mmHg 52%
    15:00 +26°C° 0 mm 4 mps 685 mmHg 50%
    16:00 +25°C° 0 mm 4 mps 685 mmHg 53%
    17:00 +23°C° 0 mm 4 mps 685 mmHg 56%
    18:00 +24°C° 0 mm 3 mps 685 mmHg 58%
    19:00 +21°C° 0 mm 3 mps 685 mmHg 64%
    20:00 +20°C° 0 mm 2 mps 685 mmHg 69%
    21:00 +19°C° 0 mm 2 mps 685 mmHg 74%
    22:00 +19°C° 0 mm 2 mps 685 mmHg 75%
    23:00 +18°C° 0 mm 2 mps 685 mmHg 76%

    Tomorrow, 21 August, Tuesday

    Time Temperature Precipitation Wind Pressure Humidity
    00:00 +18°C° 0 mm 2 mps 685 mmHg 77%
    01:00 +18°C° 0 mm 2 mps 685 mmHg 77%
    02:00 +18°C° 0 mm 2 mps 685 mmHg 77%
    03:00 +18°C° 0 mm 1 mps 684 mmHg 77%
    04:00 +19°C° 0 mm 1 mps 685 mmHg 75%
    05:00 +19°C° 0 mm 1 mps 685 mmHg 74%
    06:00 +19°C° 0 mm 1 mps 685 mmHg 72%
    07:00 +20°C° 0 mm 2 mps 685 mmHg 64%
    08:00 +23°C° 0 mm 2 mps 685 mmHg 55%
    09:00 +25°C° 0 mm 2 mps 686 mmHg 47%
    10:00 +27°C° 0 mm 3 mps 685 mmHg 43%
    11:00 +28°C° 0 mm 3 mps 685 mmHg 39%
    12:00 +30°C° 0 mm 3 mps 685 mmHg 35%
    13:00 +30°C° 0 mm 3 mps 685 mmHg 35%
    14:00 +30°C° 0 mm 3 mps 684 mmHg 34%
    15:00 +31°C° 0 mm 3 mps 684 mmHg 34%
    16:00 +29°C° 0 mm 3 mps 683 mmHg 38%
    17:00 +28°C° 0 mm 3 mps 683 mmHg 42%
    18:00 +27°C° 0 mm 3 mps 683 mmHg 46%
    19:00 +26°C° 0 mm 3 mps 683 mmHg 53%
    20:00 +24°C° 0 mm 2 mps 683 mmHg 59%
    21:00 +21°C° 0 mm 2 mps 684 mmHg 66%
    22:00 +21°C° 0 mm 2 mps 684 mmHg 67%
    23:00 +21°C° 0 mm 2 mps 683 mmHg 68%

    Day after tomorrow, 22 August, Wednesday

    Time Temperature Precipitation Wind Pressure Humidity
    00:00 +20°C° 0 mm 2 mps 683 mmHg 69%
    01:00 +20°C° 0 mm 2 mps 683 mmHg 70%
    02:00 +20°C° 0 mm 2 mps 683 mmHg 71%
    03:00 +21°C° 0 mm 1 mps 683 mmHg 71%
    04:00 +21°C° 0 mm 1 mps 683 mmHg 71%
    05:00 +21°C° 0 mm 1 mps 684 mmHg 70%
    06:00 +21°C° 0 mm 1 mps 684 mmHg 69%
    07:00 +23°C° 0 mm 2 mps 684 mmHg 60%
    08:00 +25°C° 0 mm 2 mps 684 mmHg 52%
    09:00 +27°C° 0 mm 2 mps 685 mmHg 44%
    10:00 +29°C° 0 mm 3 mps 685 mmHg 40%
    11:00 +30°C° 0 mm 3 mps 684 mmHg 36%
    12:00 +31°C° 0 mm 3 mps 684 mmHg 33%
    13:00 +31°C° 0 mm 3 mps 684 mmHg 32%
    14:00 +33°C° 0 mm 3 mps 684 mmHg 32%
    15:00 +33°C° 0 mm 4 mps 683 mmHg 32%
    16:00 +31°C° 0 mm 3 mps 683 mmHg 35%
    17:00 +30°C° 0 mm 3 mps 683 mmHg 39%
    18:00 +28°C° 0 mm 3 mps 683 mmHg 43%
    19:00 +27°C° 0 mm 3 mps 683 mmHg 49%
    20:00 +25°C° 0 mm 2 mps 684 mmHg 55%
    21:00 +24°C° 0 mm 2 mps 684 mmHg 61%
    22:00 +23°C° 0 mm 2 mps 684 mmHg 63%
    23:00 +23°C° 0 mm 2 mps 684 mmHg 65%

    23 August, Thursday

    Time Temperature Precipitation Wind Pressure Humidity
    00:00 +21°C° 0 mm 2 mps 684 mmHg 66%
    01:00 +21°C° 0 mm 2 mps 684 mmHg 67%
    02:00 +21°C° 0 mm 2 mps 684 mmHg 67%
    03:00 +20°C° 0 mm 2 mps 684 mmHg 68%
    04:00 +20°C° 0 mm 2 mps 684 mmHg 67%
    05:00 +20°C° 0 mm 2 mps 685 mmHg 65%
    06:00 +21°C° 0 mm 2 mps 685 mmHg 64%
    07:00 +24°C° 0 mm 2 mps 685 mmHg 56%
    08:00 +26°C° 0 mm 2 mps 685 mmHg 48%
    09:00 +28°C° 0 mm 3 mps 686 mmHg 39%
    10:00 +29°C° 0 mm 3 mps 686 mmHg 36%
    11:00 +30°C° 0 mm 3 mps 685 mmHg 33%
    12:00 +32°C° 0 mm 4 mps 685 mmHg 30%
    13:00 +33°C° 0 mm 4 mps 685 mmHg 29%
    14:00 +33°C° 0 mm 4 mps 685 mmHg 29%
    15:00 +33°C° 0 mm 4 mps 684 mmHg 28%
    16:00 +32°C° 0 mm 4 mps 684 mmHg 30%
    17:00 +30°C° 0 mm 4 mps 684 mmHg 32%
    18:00 +29°C° 0 mm 4 mps 684 mmHg 34%
    19:00 +27°C° 0 mm 3 mps 685 mmHg 38%
    20:00 +25°C° 0 mm 3 mps 685 mmHg 42%
    21:00 +23°C° 0 mm 2 mps 685 mmHg 46%
    22:00 +23°C° 0 mm 2 mps 685 mmHg 47%
    23:00 +23°C° 0 mm 2 mps 685 mmHg 48%

    24 August, Friday

    Time Temperature Precipitation Wind Pressure Humidity
    00:00 +21°C° 0 mm 2 mps 685 mmHg 49%
    01:00 +21°C° 0 mm 2 mps 685 mmHg 49%
    02:00 +21°C° 0 mm 2 mps 685 mmHg 50%
    03:00 +21°C° 0 mm 2 mps 685 mmHg 50%
    04:00 +21°C° 0 mm 2 mps 685 mmHg 50%
    05:00 +21°C° 0 mm 2 mps 685 mmHg 49%
    06:00 +21°C° 0 mm 2 mps 685 mmHg 48%
    07:00 +24°C° 0 mm 2 mps 685 mmHg 42%
    08:00 +26°C° 0 mm 2 mps 686 mmHg 36%
    09:00 +28°C° 0 mm 3 mps 686 mmHg 30%
    10:00 +30°C° 0 mm 3 mps 686 mmHg 28%
    11:00 +31°C° 0 mm 3 mps 686 mmHg 25%
    12:00 +33°C° 0 mm 3 mps 685 mmHg 23%
    13:00 +34°C° 0 mm 4 mps 685 mmHg 23%
    14:00 +34°C° 0 mm 4 mps 684 mmHg 23%
    15:00 +34°C° 0 mm 4 mps 684 mmHg 23%
    16:00 +33°C° 0 mm 4 mps 684 mmHg 24%
    17:00 +31°C° 0 mm 3 mps 684 mmHg 26%
    18:00 +29°C° 0 mm 3 mps 684 mmHg 28%
    19:00 +28°C° 0 mm 3 mps 684 mmHg 31%
    20:00 +26°C° 0 mm 2 mps 684 mmHg 34%
    21:00 +24°C° 0 mm 2 mps 684 mmHg 37%
    22:00 +24°C° 0 mm 2 mps 684 mmHg 38%
    23:00 +24°C° 0 mm 2 mps 684 mmHg 38%

    25 August, Saturday

    Time Temperature Precipitation Wind Pressure Humidity
    00:00 +23°C° 0 mm 2 mps 684 mmHg 39%
    01:00 +23°C° 0 mm 2 mps 684 mmHg 39%
    02:00 +23°C° 0 mm 2 mps 684 mmHg 40%
    03:00 +21°C° 0 mm 2 mps 684 mmHg 40%
    04:00 +23°C° 0 mm 2 mps 684 mmHg 40%
    05:00 +23°C° 0 mm 2 mps 684 mmHg 40%
    06:00 +23°C° 0 mm 2 mps 684 mmHg 39%
    07:00 +25°C° 0 mm 2 mps 684 mmHg 34%
    08:00 +27°C° 0 mm 2 mps 685 mmHg 29%
    09:00 +29°C° 0 mm 2 mps 685 mmHg 24%
    10:00 +31°C° 0 mm 3 mps 685 mmHg 22%
    11:00 +33°C° 0 mm 3 mps 685 mmHg 21%
    12:00 +34°C° 0 mm 3 mps 684 mmHg 19%
    13:00 +35°C° 0 mm 3 mps 684 mmHg 19%
    14:00 +35°C° 0 mm 4 mps 683 mmHg 19%
    15:00 +35°C° 0 mm 4 mps 683 mmHg 18%
    16:00 +34°C° 0 mm 4 mps 683 mmHg 20%
    17:00 +31°C° 0 mm 3 mps 683 mmHg 22%
    18:00 +30°C° 0 mm 3 mps 682 mmHg 24%
    19:00 +28°C° 0 mm 3 mps 682 mmHg 28%
    20:00 +27°C° 0 mm 2 mps 682 mmHg 31%
    21:00 +25°C° 0 mm 2 mps 682 mmHg 34%
    22:00 +24°C° 0 mm 2 mps 682 mmHg 34%
    23:00 +24°C° 0 mm 2 mps 682 mmHg 35%
    Show more